02-12-2022, 00:00:08,      0,    0.0,    0.0,   0.00,   0.00, 1023.3,    0.0, -999.0
02-12-2022, 00:00:18,      0,    0.0,    0.0,   0.00,   0.00, 1023.3,    0.0, -999.0
02-12-2022, 00:00:28,      0,    0.0,   -0.1,   0.00,   0.00, 1023.3,    0.0, -999.0
02-12-2022, 00:00:38,      0,    0.0,    0.1,   0.00,   0.00, 1023.3,    0.0, -999.0
02-12-2022, 00:00:48,      0,    0.0,    0.1,   0.00,   0.00, 1023.4,    0.1, -999.0
02-12-2022, 00:00:57,      0,    0.0,    0.1,   0.00,   0.00, 1023.3,    0.1, -999.0
02-12-2022, 00:01:08,      0,    0.0,    0.1,   0.00,   0.00, 1023.3,    0.0, -999.0
02-12-2022, 00:01:18,      0,    0.0,    0.1,   0.00,   0.00, 1023.4,    0.1, -999.0
02-12-2022, 00:01:28,      0,    0.0,    0.1,   0.00,   0.00, 1023.4,    0.0, -999.0
02-12-2022, 00:01:37,      0,    0.0,    0.2,   0.00,   0.00, 1023.3,    0.1, -999.0
02-12-2022, 00:01:48,      0,    0.0,    0.1,   0.00,   0.00, 1023.3,    0.1, -999.0
02-12-2022, 00:01:58,      0,    0.0,    0.2,   0.00,   0.00, 1023.3,    0.1, -999.0
02-12-2022, 00:02:07,      6,    0.0,    0.2,   0.00,   0.00, 1023.3,    0.0, -999.0
02-12-2022, 00:02:18,      0,    0.0,    0.1,   0.00,   0.00, 1023.3,    0.0, -999.0
02-12-2022, 00:02:28,      7,    0.0,    0.2,   0.00,   0.00, 1023.3,    0.0, -999.0
02-12-2022, 00:02:37,      0,    0.0,    0.3,   0.00,   0.00, 1023.3,    0.0, -999.0
02-12-2022, 00:02:47,      0,    0.0,    0.2,   0.00,   0.00, 1023.3,    0.1, -999.0
02-12-2022, 00:02:58,      0,    0.0,    0.2,   0.00,   0.00, 1023.3,    0.1, -999.0
02-12-2022, 00:03:08,      0,    0.0,    0.2,   0.00,   0.00, 1023.3,    0.0, -999.0
02-12-2022, 00:03:17,      0,    0.0,    0.3,   0.00,   0.00, 1023.4,    0.1, -999.0
02-12-2022, 00:03:27,      0,    0.0,    0.2,   0.00,   0.00, 1023.3,    0.0, -999.0
02-12-2022, 00:03:38,      0,    0.0,    0.2,   0.00,   0.00, 1023.3,    0.0, -999.0
02-12-2022, 00:03:47,      0,    0.0,    0.2,   0.00,   0.00, 1023.3,    0.0, -999.0
02-12-2022, 00:03:57,      0,    0.0,    0.2,   0.00,   0.00, 1023.3,    0.0, -999.0
02-12-2022, 00:04:07,      0,    0.0,    0.2,   0.00,   0.00, 1023.3,    0.0, -999.0
02-12-2022, 00:04:18,      0,    0.0,    0.3,   0.00,   0.00, 1023.3,    0.0, -999.0
02-12-2022, 00:04:27,      0,    0.0,    0.2,   0.00,   0.00, 1023.3,    0.0, -999.0
02-12-2022, 00:04:37,      0,    0.0,    0.2,   0.00,   0.00, 1023.3,    0.1, -999.0
02-12-2022, 00:04:47,      0,    0.0,    0.2,   0.00,   0.00, 1023.3,    0.2, -999.0
02-12-2022, 00:04:57,      0,    0.0,    0.2,   0.00,   0.00, 1023.3,    0.1, -999.0
02-12-2022, 00:05:07,      0,    0.0,    0.2,   0.00,   0.00, 1023.3,    0.1, -999.0
02-12-2022, 00:05:17,      0,    0.0,    0.1,   0.00,   0.00, 1023.3,    0.1, -999.0
02-12-2022, 00:05:27,      0,    0.0,    0.2,   0.00,   0.00, 1023.3,    0.0, -999.0
02-12-2022, 00:05:37,      0,    0.0,    0.2,   0.00,   0.00, 1023.3,    0.2, -999.0
02-12-2022, 00:05:47,      0,    0.0,    0.2,   0.00,   0.00, 1023.3,    0.0, -999.0
02-12-2022, 00:05:57,      4,    0.0,    0.2,   0.00,   0.00, 1023.4,    0.0, -999.0
02-12-2022, 00:06:07,      0,    0.0,    0.2,   0.00,   0.00, 1023.3,    0.0, -999.0
02-12-2022, 00:06:17,      0,    0.0,    0.2,   0.00,   0.00, 1023.3,    0.1, -999.0
02-12-2022, 00:06:27,      0,    0.0,    0.2,   0.00,   0.00, 1023.3,    0.1, -999.0
02-12-2022, 00:06:37,      0,    0.0,    0.2,   0.00,   0.00, 1023.3,    0.0, -999.0
02-12-2022, 00:06:47,      0,    0.0,    0.3,   0.00,   0.00, 1023.3,    0.0, -999.0
02-12-2022, 00:06:57,      0,    0.0,    0.3,   0.00,   0.00, 1023.3,    0.0, -999.0
02-12-2022, 00:07:07,      0,    0.0,    0.3,   0.00,   0.00, 1023.3,    0.1, -999.0
02-12-2022, 00:07:17,      0,    0.0,    0.2,   0.00,   0.00, 1023.3,    0.1, -999.0
02-12-2022, 00:07:27,      0,    0.0,    0.3,   0.00,   0.00, 1023.3,    0.1, -999.0
02-12-2022, 00:07:37,      0,    0.0,    0.3,   0.00,   0.00, 1023.3,    0.0, -999.0
02-12-2022, 00:07:47,      0,    0.0,    0.3,   0.00,   0.00, 1023.3,    0.0, -999.0
02-12-2022, 00:07:57,      0,    0.0,    0.3,   0.00,   0.00, 1023.3,    0.1, -999.0
02-12-2022, 00:08:07,      0,    0.0,    0.2,   0.00,   0.00, 1023.3,    0.0, -999.0
02-12-2022, 00:08:17,      0,    0.0,    0.3,   0.00,   0.00, 1023.3,    0.0, -999.0
02-12-2022, 00:08:27,      0,    0.0,    0.3,   0.00,   0.00, 1023.3,    0.0, -999.0
02-12-2022, 00:08:37,      0,    0.1,    0.2,   0.00,   0.00, 1023.4,    0.0, -999.0
02-12-2022, 00:08:47,      0,    0.0,    0.3,   0.00,   0.00, 1023.3,    0.1, -999.0
02-12-2022, 00:08:57,      0,    0.0,    0.3,   0.00,   0.00, 1023.3,    0.0, -999.0
02-12-2022, 00:09:07,      0,    0.0,    0.3,   0.00,   0.00, 1023.4,    0.0, -999.0
02-12-2022, 00:09:16,      0,    0.0,    0.1,   0.00,   0.00, 1023.3,    0.1, -999.0
02-12-2022, 00:09:27,      0,    0.0,    0.2,   0.00,   0.00, 1023.3,    0.0, -999.0
02-12-2022, 00:09:37,      0,    0.0,    0.2,   0.00,   0.00, 1023.3,    0.0, -999.0
02-12-2022, 00:09:47,      0,    0.0,    0.0,   0.00,   0.00, 1023.3,    0.1, -999.0
02-12-2022, 00:09:56,      0,    0.0,    0.1,   0.00,   0.00, 1023.3,    0.1, -999.0
02-12-2022, 00:10:07,      0,    0.0,    0.1,   0.00,   0.00, 1023.3,    0.0, -999.0
02-12-2022, 00:10:17,      0,    0.0,    0.1,   0.00,   0.00, 1023.3,    0.0, -999.0
02-12-2022, 00:10:26,      0,    0.0,    0.1,   0.00,   0.00, 1023.3,    0.0, -999.0
02-12-2022, 00:10:36,      0,    0.0,    0.1,   0.00,   0.00, 1023.3,    0.1, -999.0
02-12-2022, 00:10:47,      0,    0.0,    0.1,   0.00,   0.00, 1023.3,    0.0, -999.0
02-12-2022, 00:10:56,      0,    0.0,    0.1,   0.00,   0.00, 1023.3,    0.0, -999.0
02-12-2022, 00:11:06,      0,    0.0,    0.1,   0.00,   0.00, 1023.3,    0.0, -999.0
02-12-2022, 00:11:16,      0,    0.0,    0.1,   0.00,   0.00, 1023.3,    0.0, -999.0
02-12-2022, 00:11:27,      0,    0.0,    0.1,   0.00,   0.00, 1023.3,    0.1, -999.0
02-12-2022, 00:11:36,      0,    0.0,    0.1,   0.00,   0.00, 1023.3,    0.0, -999.0
02-12-2022, 00:11:46,      0,    0.0,    0.2,   0.00,   0.00, 1023.3,    0.0, -999.0
02-12-2022, 00:11:56,      0,    0.0,    0.1,   0.00,   0.00, 1023.3,    0.1, -999.0
02-12-2022, 00:12:06,      1,    0.0,    0.2,   0.00,   0.00, 1023.3,    0.0, -999.0
02-12-2022, 00:12:16,      0,    0.0,    0.2,   0.00,   0.00, 1023.3,    0.0, -999.0
02-12-2022, 00:12:26,      0,    0.0,    0.2,   0.00,   0.00, 1023.3,    0.0, -999.0
02-12-2022, 00:12:36,      0,    0.0,    0.2,   0.00,   0.00, 1023.3,    0.0, -999.0
02-12-2022, 00:12:46,      0,    0.0,    0.1,   0.00,   0.00, 1023.3,    0.0, -999.0
02-12-2022, 00:12:56,      0,    0.0,    0.2,   0.00,   0.00, 1023.3,    0.0, -999.0
02-12-2022, 00:13:06,      0,    0.0,    0.2,   0.00,   0.00, 1023.3,    0.1, -999.0
02-12-2022, 00:13:16,      0,    0.0,    0.2,   0.00,   0.00, 1023.3,    0.1, -999.0
02-12-2022, 00:13:26,      0,    0.0,    0.2,   0.00,   0.00, 1023.3,    0.1, -999.0
02-12-2022, 00:13:36,      0,    0.0,    0.2,   0.00,   0.00, 1023.3,    0.1, -999.0
02-12-2022, 00:13:46,      0,    0.0,    0.1,   0.00,   0.00, 1023.3,    0.0, -999.0
02-12-2022, 00:13:56,      0,    0.0,    0.1,   0.00,   0.00, 1023.3,    0.0, -999.0
02-12-2022, 00:14:06,      0,    0.0,    0.1,   0.00,   0.00, 1023.3,    0.2, -999.0
02-12-2022, 00:14:16,      0,    0.0,    0.1,   0.00,   0.00, 1023.3,    0.0, -999.0
02-12-2022, 00:14:26,      7,    0.0,    0.1,   0.00,   0.00, 1023.3,    0.0, -999.0
02-12-2022, 00:14:36,      0,    0.0,    0.1,   0.00,   0.00, 1023.3,    0.0, -999.0
02-12-2022, 00:14:46,     42,    0.0,    0.0,   0.00,   0.00, 1023.3,    0.1, -999.0
02-12-2022, 00:14:56,     50,    0.1,    0.1,   0.00,   0.00, 1023.4,    0.0, -999.0
02-12-2022, 00:15:06,     49,    0.0,    0.1,   0.00,   0.00, 1023.3,    0.0, -999.0
02-12-2022, 00:15:16,     49,    0.0,    0.1,   0.00,   0.00, 1023.3,    0.0, -999.0
02-12-2022, 00:15:26,     50,    0.0,    0.1,   0.00,   0.00, 1023.3,    0.2, -999.0
02-12-2022, 00:15:36,     50,    0.0,    0.0,   0.00,   0.00, 1023.3,    0.1, -999.0
02-12-2022, 00:15:46,     50,    0.0,    0.1,   0.00,   0.00, 1023.3,    0.1, -999.0
02-12-2022, 00:15:56,     50,    0.0,    0.2,   0.00,   0.00, 1023.3,    0.1, -999.0
02-12-2022, 00:16:06,     50,    0.0,    0.2,   0.00,   0.00, 1023.3,    0.0, -999.0
02-12-2022, 00:16:16,     50,    0.0,    0.2,   0.00,   0.00, 1023.3,    0.0, -999.0
02-12-2022, 00:16:26,     50,    0.0,    0.2,   0.00,   0.00, 1023.3,    0.0, -999.0
02-12-2022, 00:16:35,     49,    0.0,    0.2,   0.00,   0.00, 1023.3,    0.0, -999.0
02-12-2022, 00:16:46,     50,    0.0,    0.2,   0.00,   0.00, 1023.3,    0.1, -999.0
02-12-2022, 00:16:56,     50,    0.0,    0.3,   0.00,   0.00, 1023.3,    0.0, -999.0
02-12-2022, 00:17:05,     50,    0.0,    0.3,   0.00,   0.00, 1023.3,    0.1, -999.0
02-12-2022, 00:17:16,     50,    0.0,    0.2,   0.00,   0.00, 1023.3,    0.0, -999.0
02-12-2022, 00:17:26,     49,    0.0,    0.3,   0.00,   0.00, 1023.3,    0.1, -999.0
02-12-2022, 00:17:36,     50,    0.0,    0.3,   0.00,   0.00, 1023.3,    0.1, -999.0
02-12-2022, 00:17:45,     50,    0.0,    0.2,   0.00,   0.00, 1023.3,    0.0, -999.0
02-12-2022, 00:17:56,     50,    0.0,    0.2,   0.00,   0.00, 1023.3,    0.0, -999.0
02-12-2022, 00:18:06,     50,    0.0,    0.3,   0.00,   0.00, 1023.3,    0.2, -999.0
02-12-2022, 00:18:15,     49,    0.0,    0.2,   0.00,   0.00, 1023.3,    0.1, -999.0
02-12-2022, 00:18:25,     50,    0.0,    0.2,   0.00,   0.00, 1023.3,    0.2, -999.0
02-12-2022, 00:18:36,     50,    0.0,    0.1,   0.00,   0.00, 1023.3,    0.0, -999.0
02-12-2022, 00:18:46,     49,    0.0,    0.1,   0.00,   0.00, 1023.3,    0.1, -999.0
02-12-2022, 00:18:55,     50,    0.0,    0.1,   0.00,   0.00, 1023.3,    0.0, -999.0
02-12-2022, 00:19:05,     50,    0.0,    0.1,   0.00,   0.00, 1023.3,    0.0, -999.0
02-12-2022, 00:19:16,     50,    0.0,    0.1,   0.00,   0.00, 1023.3,    0.0, -999.0
02-12-2022, 00:19:25,     49,    0.0,    0.2,   0.00,   0.00, 1023.3,    0.0, -999.0
02-12-2022, 00:19:35,     50,    0.0,    0.2,   0.00,   0.00, 1023.3,    0.1, -999.0
02-12-2022, 00:19:45,     50,    0.0,    0.2,   0.00,   0.00, 1023.3,    0.0, -999.0
02-12-2022, 00:19:55,     49,    0.0,    0.2,   0.00,   0.00, 1023.3,    0.1, -999.0
02-12-2022, 00:20:05,     50,    0.0,    0.2,   0.00,   0.00, 1023.3,    0.0, -999.0
02-12-2022, 00:20:15,     50,    0.0,    0.1,   0.00,   0.00, 1023.3,    0.0, -999.0
02-12-2022, 00:20:25,     50,    0.0,    0.2,   0.00,   0.00, 1023.3,    0.0, -999.0
02-12-2022, 00:20:35,     50,    0.0,    0.0,   0.00,   0.00, 1023.3,    0.1, -999.0
02-12-2022, 00:20:45,     49,    0.0,    0.1,   0.00,   0.00, 1023.3,    0.1, -999.0
02-12-2022, 00:20:55,     49,    0.0,    0.1,   0.00,   0.00, 1023.3,    0.0, -999.0
02-12-2022, 00:21:05,     50,    0.0,    0.2,   0.00,   0.00, 1023.3,    0.1, -999.0
02-12-2022, 00:21:15,     50,    0.0,    0.2,   0.00,   0.00, 1023.3,    0.1, -999.0
02-12-2022, 00:21:25,     50,    0.0,    0.2,   0.00,   0.00, 1023.3,    0.0, -999.0
02-12-2022, 00:21:35,     50,    0.0,    0.1,   0.00,   0.00, 1023.3,    0.1, -999.0
02-12-2022, 00:21:45,     50,    0.0,    0.1,   0.00,   0.00, 1023.3,    0.1, -999.0
02-12-2022, 00:21:55,     50,    0.0,    0.2,   0.00,   0.00, 1023.2,    0.0, -999.0
02-12-2022, 00:22:05,     50,    0.0,    0.2,   0.00,   0.00, 1023.3,    0.3, -999.0
02-12-2022, 00:22:15,     49,    0.0,    0.2,   0.00,   0.00, 1023.3,    0.1, -999.0
02-12-2022, 00:22:25,     50,    0.0,    0.2,   0.00,   0.00, 1023.3,    0.0, -999.0
02-12-2022, 00:22:35,     50,    0.0,    0.2,   0.00,   0.00, 1023.3,    0.0, -999.0
02-12-2022, 00:22:45,     50,    0.0,    0.1,   0.00,   0.00, 1023.3,    0.1, -999.0
02-12-2022, 00:22:55,     50,    0.0,    0.2,   0.00,   0.00, 1023.3,    0.0, -999.0
02-12-2022, 00:23:05,     50,    0.0,    0.3,   0.00,   0.00, 1023.3,    0.1, -999.0
02-12-2022, 00:23:15,     49,    0.0,    0.2,   0.00,   0.00, 1023.3,    0.1, -999.0
02-12-2022, 00:23:25,     50,    0.0,    0.2,   0.00,   0.00, 1023.3,    0.0, -999.0
02-12-2022, 00:23:35,     49,    0.0,    0.2,   0.00,   0.00, 1023.3,    0.1, -999.0
02-12-2022, 00:23:45,     50,    0.0,    0.2,   0.00,   0.00, 1023.3,    0.0, -999.0
02-12-2022, 00:23:55,     49,    0.0,    0.2,   0.00,   0.00, 1023.3,    0.1, -999.0
02-12-2022, 00:24:05,     49,    0.0,    0.2,   0.00,   0.01, 1023.3,    0.1, -999.0
02-12-2022, 00:24:15,     49,    0.0,    0.2,   0.00,   0.00, 1023.3,    0.0, -999.0
02-12-2022, 00:24:25,     50,    0.0,    0.2,   0.00,   0.00, 1023.3,    0.1, -999.0
02-12-2022, 00:24:35,     49,    0.0,    0.2,   0.00,   0.00, 1023.3,    0.0, -999.0
02-12-2022, 00:24:45,     50,    0.0,    0.2,   0.00,   0.00, 1023.3,    0.0, -999.0
02-12-2022, 00:24:54,     50,    0.0,    0.2,   0.00,   0.00, 1023.2,    0.0, -999.0
02-12-2022, 00:25:05,     50,    0.0,    0.1,   0.00,   0.00, 1023.3,    0.2, -999.0
02-12-2022, 00:25:15,     50,    0.0,    0.1,   0.00,   0.00, 1023.3,    0.0, -999.0
02-12-2022, 00:25:24,     50,    0.0,    0.0,   0.00,   0.00, 1023.3,    0.0, -999.0
02-12-2022, 00:25:34,     50,    0.0,    0.1,   0.00,   0.00, 1023.3,    0.1, -999.0
02-12-2022, 00:25:45,     50,    0.0,    0.0,   0.00,   0.00, 1023.3,    0.0, -999.0
02-12-2022, 00:25:55,     50,    0.0,    0.1,   0.00,   0.00, 1023.3,    0.0, -999.0
02-12-2022, 00:26:04,     50,    0.0,    0.1,   0.00,   0.00, 1023.2,    0.0, -999.0
02-12-2022, 00:26:14,     50,    0.0,    0.2,   0.00,   0.00, 1023.3,    0.1, -999.0
02-12-2022, 00:26:25,     50,    0.0,    0.2,   0.00,   0.00, 1023.3,    0.1, -999.0
02-12-2022, 00:26:34,     50,    0.0,    0.1,   0.00,   0.00, 1023.2,    0.1, -999.0
02-12-2022, 00:26:44,     49,    0.0,    0.1,   0.00,   0.00, 1023.3,    0.0, -999.0
02-12-2022, 00:26:54,     50,    0.0,    0.2,   0.00,   0.00, 1023.3,    0.0, -999.0
02-12-2022, 00:27:05,     50,    0.0,    0.2,   0.00,   0.00, 1023.3,    0.1, -999.0
02-12-2022, 00:27:14,     50,    0.0,    0.2,   0.00,   0.00, 1023.2,    0.0, -999.0
02-12-2022, 00:27:24,     50,    0.0,    0.2,   0.00,   0.00, 1023.3,    0.0, -999.0
02-12-2022, 00:27:34,     50,    0.0,    0.3,   0.00,   0.00, 1023.3,    0.1, -999.0
02-12-2022, 00:27:44,     50,    0.0,    0.2,   0.00,   0.00, 1023.2,    0.0, -999.0
02-12-2022, 00:27:54,     50,    0.0,    0.2,   0.00,   0.00, 1023.2,    0.0, -999.0
02-12-2022, 00:28:04,     50,    0.0,    0.1,   0.00,   0.00, 1023.2,    0.1, -999.0
02-12-2022, 00:28:14,     50,    0.0,    0.0,   0.00,   0.00, 1023.2,    0.0, -999.0
02-12-2022, 00:28:24,     50,    0.0,    0.0,   0.00,   0.00, 1023.2,    0.2, -999.0
02-12-2022, 00:28:34,     51,    0.0,    0.0,   0.00,   0.00, 1023.2,    0.1, -999.0
02-12-2022, 00:28:44,     50,    0.0,    0.1,   0.00,   0.00, 1023.2,    0.1, -999.0
02-12-2022, 00:28:54,     49,    0.0,    0.1,   0.00,   0.00, 1023.3,    0.1, -999.0
02-12-2022, 00:29:04,     50,    0.0,   -0.1,   0.00,   0.00, 1023.2,    0.0, -999.0
02-12-2022, 00:29:14,     49,    0.0,    0.1,   0.00,   0.00, 1023.2,    0.0, -999.0
02-12-2022, 00:29:24,     50,    0.0,    0.1,   0.00,   0.00, 1023.2,    0.1, -999.0
02-12-2022, 00:29:34,     50,    0.0,    0.1,   0.00,   0.00, 1023.2,    0.0, -999.0
02-12-2022, 00:29:44,     50,    0.0,    0.1,   0.00,   0.00, 1023.2,    0.0, -999.0
02-12-2022, 00:29:54,     50,    0.0,    0.0,   0.00,   0.00, 1023.2,    0.1, -999.0
02-12-2022, 00:30:04,     50,    0.0,    0.2,   0.00,   0.00, 1023.2,    0.0, -999.0
02-12-2022, 00:30:14,     50,    0.0,    0.2,   0.00,   0.00, 1023.2,    0.0, -999.0
02-12-2022, 00:30:24,     50,    0.0,    0.1,   0.00,   0.00, 1023.2,    0.0, -999.0
02-12-2022, 00:30:34,     50,    0.0,    0.0,   0.00,   0.00, 1023.2,    0.1, -999.0
02-12-2022, 00:30:44,     50,    0.0,    0.1,   0.00,   0.00, 1023.2,    0.0, -999.0
02-12-2022, 00:30:54,     50,    0.0,    0.1,   0.00,   0.00, 1023.2,    0.1, -999.0
02-12-2022, 00:31:04,     50,    0.0,    0.1,   0.00,   0.00, 1023.2,    0.1, -999.0
02-12-2022, 00:31:14,     50,    0.0,    0.2,   0.00,   0.00, 1023.2,    0.1, -999.0
02-12-2022, 00:31:24,     50,    0.0,    0.1,   0.00,   0.00, 1023.2,    0.0, -999.0
02-12-2022, 00:31:34,     50,    0.0,    0.1,   0.00,   0.00, 1023.2,    0.0, -999.0
02-12-2022, 00:31:44,     50,    0.0,    0.1,   0.00,   0.00, 1023.2,    0.1, -999.0
02-12-2022, 00:31:54,     50,    0.0,    0.1,   0.00,   0.00, 1023.2,    0.2, -999.0
02-12-2022, 00:32:03,     50,    0.0,    0.1,   0.00,   0.00, 1023.2,    0.0, -999.0
02-12-2022, 00:32:14,     50,    0.0,    0.1,   0.00,   0.00, 1023.2,    0.0, -999.0
02-12-2022, 00:32:24,     50,    0.0,    0.1,   0.00,   0.00, 1023.2,    0.0, -999.0
02-12-2022, 00:32:34,     50,    0.0,    0.2,   0.00,   0.00, 1023.2,    0.2, -999.0
02-12-2022, 00:32:43,     50,    0.0,    0.1,   0.00,   0.00, 1023.2,    0.0, -999.0
02-12-2022, 00:32:54,     50,    0.0,    0.1,   0.00,   0.00, 1023.2,    0.0, -999.0
02-12-2022, 00:33:04,     50,    0.0,    0.1,   0.00,   0.00, 1023.2,    0.0, -999.0
02-12-2022, 00:33:13,     50,    0.0,    0.1,   0.00,   0.00, 1023.2,    0.0, -999.0
02-12-2022, 00:33:23,     50,    0.0,    0.0,   0.00,   0.00, 1023.2,    0.0, -999.0
02-12-2022, 00:33:34,     50,    0.0,    0.1,   0.00,   0.00, 1023.2,    0.0, -999.0
02-12-2022, 00:33:43,     50,    0.0,    0.1,   0.00,   0.00, 1023.2,    0.1, -999.0
02-12-2022, 00:33:53,     50,    0.0,    0.2,   0.00,   0.00, 1023.2,    0.0, -999.0
02-12-2022, 00:34:03,     50,    0.0,    0.3,   0.00,   0.00, 1023.2,    0.0, -999.0
02-12-2022, 00:34:14,     50,    0.0,    0.3,   0.00,   0.00, 1023.2,    0.0, -999.0
02-12-2022, 00:34:23,     50,    0.0,    0.3,   0.00,   0.00, 1023.2,    0.0, -999.0
02-12-2022, 00:34:33,     50,    0.0,    0.2,   0.00,   0.00, 1023.2,    0.0, -999.0
02-12-2022, 00:34:44,     50,    0.0,    0.2,   0.00,   0.00, 1023.2,    0.0, -999.0
02-12-2022, 00:34:53,     50,    0.0,    0.3,   0.00,   0.00, 1023.1,    0.0, -999.0
02-12-2022, 00:35:03,     50,    0.0,    0.2,   0.00,   0.00, 1023.1,    0.0, -999.0
02-12-2022, 00:35:13,     50,    0.0,    0.2,   0.00,   0.00, 1023.2,    0.1, -999.0
02-12-2022, 00:35:23,     51,    0.0,    0.2,   0.00,   0.00, 1023.2,    0.0, -999.0
02-12-2022, 00:35:33,     50,    0.0,    0.3,   0.00,   0.00, 1023.2,    0.0, -999.0
02-12-2022, 00:35:43,     50,    0.0,    0.3,   0.00,   0.00, 1023.2,    0.0, -999.0
02-12-2022, 00:35:53,     50,    0.0,    0.2,   0.00,   0.00, 1023.2,    0.0, -999.0
02-12-2022, 00:36:03,     50,    0.0,    0.1,   0.00,   0.00, 1023.2,    0.0, -999.0
02-12-2022, 00:36:13,     50,    0.0,    0.2,   0.00,   0.00, 1023.2,    0.1, -999.0
02-12-2022, 00:36:23,     50,    0.0,    0.2,   0.00,   0.00, 1023.1,    0.0, -999.0
02-12-2022, 00:36:33,     50,    0.0,    0.2,   0.00,   0.00, 1023.1,    0.1, -999.0
02-12-2022, 00:36:43,     50,    0.0,    0.2,   0.00,   0.00, 1023.1,    0.2, -999.0
02-12-2022, 00:36:53,     51,    0.0,    0.2,   0.00,   0.00, 1023.2,    0.1, -999.0
02-12-2022, 00:37:03,     50,    0.0,    0.2,   0.00,   0.00, 1023.1,    0.0, -999.0
02-12-2022, 00:37:13,     50,    0.0,    0.2,   0.00,   0.00, 1023.1,    0.1, -999.0
02-12-2022, 00:37:23,     50,    0.0,    0.1,   0.00,   0.00, 1023.1,    0.0, -999.0
02-12-2022, 00:37:33,     50,    0.0,   -0.1,   0.00,   0.00, 1023.1,    0.1, -999.0
02-12-2022, 00:37:43,     54,    0.0,    0.0,   0.00,   0.00, 1023.1,    0.0, -999.0
02-12-2022, 00:37:53,     50,    0.0,    0.0,   0.00,   0.00, 1023.1,    0.0, -999.0
02-12-2022, 00:38:03,     50,    0.0,    0.0,   0.00,   0.00, 1023.1,    0.0, -999.0
02-12-2022, 00:38:13,     50,    0.0,    0.0,   0.00,   0.00, 1023.1,    0.0, -999.0
02-12-2022, 00:38:23,     50,    0.0,    0.0,   0.00,   0.00, 1023.1,    0.0, -999.0
02-12-2022, 00:38:33,     50,    0.0,    0.0,   0.00,   0.00, 1023.1,    0.0, -999.0
02-12-2022, 00:38:43,     50,    0.0,    0.0,   0.00,   0.00, 1023.1,    0.1, -999.0
02-12-2022, 00:38:53,     50,    0.0,    0.1,   0.00,   0.00, 1023.1,    0.0, -999.0
02-12-2022, 00:39:03,     50,    0.0,    0.0,   0.00,   0.00, 1023.1,    0.0, -999.0
02-12-2022, 00:39:13,     51,    0.0,    0.0,   0.00,   0.00, 1023.1,    0.1, -999.0
02-12-2022, 00:39:23,     51,    0.0,    0.1,   0.00,   0.00, 1023.1,    0.1, -999.0
02-12-2022, 00:39:33,     51,    0.0,    0.1,   0.00,   0.00, 1023.1,    0.0, -999.0
02-12-2022, 00:39:43,     51,    0.0,    0.2,   0.00,   0.00, 1023.1,    0.0, -999.0
02-12-2022, 00:39:52,     51,    0.0,    0.2,   0.00,   0.00, 1023.1,    0.0, -999.0
02-12-2022, 00:40:03,     51,    0.0,    0.2,   0.00,   0.00, 1023.1,    0.1, -999.0
02-12-2022, 00:40:13,     51,    0.0,    0.1,   0.00,   0.00, 1023.1,    0.1, -999.0
02-12-2022, 00:40:23,     51,    0.0,    0.1,   0.00,   0.00, 1023.1,    0.0, -999.0
02-12-2022, 00:40:32,     51,    0.0,    0.1,   0.00,   0.00, 1023.1,    0.0, -999.0
02-12-2022, 00:40:43,     51,    0.0,    0.0,   0.00,   0.00, 1023.1,    0.1, -999.0
02-12-2022, 00:40:53,     51,    0.0,    0.0,   0.00,   0.00, 1023.1,    0.1, -999.0
02-12-2022, 00:41:02,     51,    0.0,    0.0,   0.00,   0.00, 1023.1,    0.0, -999.0
02-12-2022, 00:41:12,     51,    0.0,   -0.1,   0.00,   0.00, 1023.1,    0.0, -999.0
02-12-2022, 00:41:23,     51,    0.0,   -0.1,   0.00,   0.00, 1023.1,    0.0, -999.0
02-12-2022, 00:41:32,     51,    0.0,    0.0,   0.00,   0.00, 1023.1,    0.1, -999.0
02-12-2022, 00:41:42,     51,    0.0,    0.0,   0.00,   0.00, 1023.1,    0.1, -999.0
02-12-2022, 00:41:52,     51,    0.0,    0.0,   0.00,   0.00, 1023.1,    0.1, -999.0
02-12-2022, 00:42:03,     51,    0.0,    0.0,   0.00,   0.00, 1023.1,    0.0, -999.0
02-12-2022, 00:42:12,     51,    0.0,   -0.1,   0.00,   0.00, 1023.1,    0.0, -999.0
02-12-2022, 00:42:22,     51,    0.0,    0.0,   0.00,   0.00, 1023.1,    0.1, -999.0
02-12-2022, 00:42:33,     51,    0.0,    0.1,   0.00,   0.00, 1023.1,    0.0, -999.0
02-12-2022, 00:42:42,     51,    0.0,    0.1,   0.00,   0.00, 1023.1,    0.0, -999.0
02-12-2022, 00:42:52,     51,    0.0,    0.0,   0.00,   0.00, 1023.1,    0.0, -999.0
02-12-2022, 00:43:02,     51,    0.0,    0.1,   0.00,   0.00, 1023.1,    0.0, -999.0
02-12-2022, 00:43:12,     51,    0.0,    0.2,   0.00,   0.00, 1023.1,    0.1, -999.0
02-12-2022, 00:43:22,     51,    0.0,    0.1,   0.00,   0.00, 1023.1,    0.0, -999.0
02-12-2022, 00:43:32,     51,    0.0,    0.1,   0.00,   0.00, 1023.1,    0.0, -999.0
02-12-2022, 00:43:42,     51,    0.0,    0.1,   0.00,   0.00, 1023.1,    0.0, -999.0
02-12-2022, 00:43:52,     51,    0.0,    0.0,   0.00,   0.00, 1023.1,    0.0, -999.0
02-12-2022, 00:44:02,      0,    0.0,    0.0,   0.00,   0.00, 1023.1,    0.0, -999.0
02-12-2022, 00:44:12,      0,    0.0,    0.0,   0.00,   0.00, 1023.1,    0.1, -999.0
02-12-2022, 00:44:22,      0,    0.0,   -0.1,   0.00,   0.00, 1023.1,    0.0, -999.0
02-12-2022, 00:44:32,      0,    0.0,   -0.1,   0.00,   0.00, 1023.1,    0.0, -999.0
02-12-2022, 00:44:42,      0,    0.0,    0.0,   0.00,   0.00, 1023.1,    0.0, -999.0
02-12-2022, 00:44:52,      0,    0.0,    0.0,   0.00,   0.00, 1023.1,    0.1, -999.0
02-12-2022, 00:45:02,      0,    0.0,    0.0,   0.00,   0.00, 1023.1,    0.1, -999.0
02-12-2022, 00:45:12,      0,    0.0,   -0.1,   0.00,   0.00, 1023.1,    0.0, -999.0
02-12-2022, 00:45:22,      0,    0.0,    0.0,   0.00,   0.00, 1023.1,    0.1, -999.0
02-12-2022, 00:45:32,      0,    0.0,    0.0,   0.00,   0.00, 1023.1,    0.0, -999.0
02-12-2022, 00:45:42,      0,    0.0,    0.0,   0.00,   0.00, 1023.1,    0.0, -999.0
02-12-2022, 00:45:52,      0,    0.0,    0.0,   0.00,   0.00, 1023.1,    0.1, -999.0
02-12-2022, 00:46:02,      0,    0.0,    0.0,   0.00,   0.00, 1023.1,    0.1, -999.0
02-12-2022, 00:46:12,      5,    0.0,    0.0,   0.00,   0.00, 1023.1,    0.1, -999.0
02-12-2022, 00:46:22,      0,    0.0,    0.0,   0.00,   0.00, 1023.1,    0.0, -999.0
02-12-2022, 00:46:32,      0,    0.0,    0.1,   0.00,   0.00, 1023.1,    0.0, -999.0
02-12-2022, 00:46:42,      0,    0.0,    0.1,   0.00,   0.00, 1023.1,    0.1, -999.0
02-12-2022, 00:46:52,      0,    0.0,    0.1,   0.00,   0.00, 1023.1,    0.1, -999.0